"SCET";"TARGET";"ELECTRON_DENSITY";"ERROR_FLAG";"ELECTRON_DENSITY_ERROR";"FREQ_FCE";"MEASURED_VALUE";"MEASURED_ITEM";"FREQ_PLASMA";"FREQ_UPPER_HYBRID";"FREQ_R_EQUALS_ZERO";"FREQ_L_EQUALS_ZERO";"ORBIT_NUMBER";"SATURN_RADIUS";"SATURN_IAU_LONGITUDE";"SATURN_SLS4_S_LONGITUDE";"SATURN_SLS4_N_LONGITUDE";"SATURN_SLS5_S_LONGITUDE";"SATURN_SLS5_N_LONGITUDE";"SATURN_LOCAL_TIME";"SATURN_KRONOGRAPHIC_LATITUDE";"SATURN_MAGNETIC_LATITUDE";"SATURN_L";"SATURN_L_OFFSET";"SATURN_SOLAR_EQUATORIAL_X";"SATURN_SOLAR_EQUATORIAL_Y";"SATURN_SOLAR_EQUATORIAL_Z";"SATURN_ALTITUDE";"ENCELADUS_ENCOUNTER_NUMBER";"ENCELADUS_RADIUS";"ENCELADUS_COROTATIONAL_X";"ENCELADUS_COROTATIONAL_Y";"ENCELADUS_COROTATIONAL_Z";"ENCELADUS_TRUE_ANOMALY";"ENCELADUS_PERIAPSIS_TIME";"JUPITER_RADIUS";"JUPITER_SYSTEMIII_LONGITUDE";"JUPITER_MAGNETIC_LATITUDE";"JUPITER_MAGNETIC_LOCAL_TIME";"JUPITER_L";"IO_PHASE";"EARTH_RADIUS";"EARTH_MAGNETIC_LATITUDE";"EARTH_LOCAL_TIME";"EARTH_L"
"[UTC]";"[0=Saturn, 1=Enceladus, 2=Jupiter, 3=Earth]";"[cm-3]";"[0=automated, 1=manual]";"[normalized density error]";"[Hz]";"[Hz]";"[0=upper hybrid frequency, 1=plasma frequency cutoff]";"[Hz]";"[Hz]";"[Hz]";"[Hz}";"[0, A, B, C, 3, 4, ... , 292, 293]";"[Rs where 1Rs=60268km]";"[degrees]";"[degrees]";"[degrees]";"[degrees]";"[degrees]";"[hours]";"[degrees]";"[degrees where offset=2293km north]";"[Rs where 1Rs=60268km]";"[Rs where 1Rs=60268km and offset=2293km north]";"[Rs where 1Rs=60268km]";"[Rs where 1Rs=60268km]";"[Rs where 1Rs=60268km]";"[km where ellipsoid a,b=60268km and c=54364km]";"[E0, E1, E2, ... , E21, E22]";"[Renc where 1Renc=252.1km]";"[Renc where 1Renc=252.1km]";"[Renc where 1Renc=252.1km]";"[Renc where 1Renc=252.1km]";"[degrees]";"[UTC]";"[Rj where 1Rj=71492km]";"[degrees]";"[degrees using JRM09 model]";"[hours using JRM09 model]";"[Rj where 1Rj=71492km]";"[degrees]";"[Re where 1Re=6378.1366km]";"[degrees]";"[hours]";"[Re where 1Re=6378.1366km]"
2005-07-14T09:43:42.135Z;0;5.1940e-01;0;     0.555;  1102.248;   6564.836; 0;   6471.640;   6564.836;   7046.188;   5943.940; 11;   8.564;  34.925; 207.701;; 214.930; 311.367;  12.511; -20.432; -20.670;   9.753;   8.569;   7.954;   1.071;  -2.990;;;;;;;;;;;;;;;;;;
2005-07-14T09:44:30.134Z;0;5.1260e-01;0;     0.483;  1107.036;   6523.783; 0;   6429.169;   6523.783;   7006.471;   5899.435; 11;   8.558;  35.333; 208.103;; 215.335; 311.780;  12.514; -20.427; -20.665;   9.745;   8.563;   7.947;   1.076;  -2.987;;;;;;;;;;;;;;;;;;
2005-07-14T09:44:46.134Z;0;5.0930e-01;0;     0.383;  1107.036;   6503.569; 0;   6408.657;   6503.569;   6986.034;   5878.998; 11;   8.556;  35.469; 208.237;; 215.470; 311.918;  12.515; -20.425; -20.663;   9.742;   8.561;   7.945;   1.078;  -2.986;;;;;;;;;;;;;;;;;;
2005-07-14T09:45:02.134Z;0;5.1850e-01;0;     0.524;  1104.432;   6560.128; 0;   6466.491;   6560.128;   7042.243;   5937.811; 11;   8.554;  35.605; 208.371;; 215.605; 312.055;  12.516; -20.423; -20.662;   9.740;   8.559;   7.943;   1.079;  -2.985;;;;;;;;;;;;;;;;;;
2005-07-14T09:45:18.134Z;0;5.3240e-01;0;     0.464;  1112.860;   6646.164; 0;   6552.331;   6646.164;   7132.345;   6019.485; 11;   8.552;  35.741; 208.505;; 215.740; 312.193;  12.517; -20.421; -20.660;   9.737;   8.557;   7.941;   1.081;  -2.984;;;;;;;;;;;;;;;;;;
2005-07-14T09:45:34.134Z;0;5.1140e-01;0;     0.376;  1112.860;   6517.563; 0;   6421.851;   6517.563;   7002.342;   5889.482; 11;   8.550;  35.877; 208.639;; 215.876; 312.331;  12.518; -20.419; -20.658;   9.735;   8.555;   7.939;   1.083;  -2.983;;;;;;;;;;;;;;;;;;
2005-07-14T09:45:50.134Z;0;5.0490e-01;0;     0.290;  1109.556;   6476.351; 0;   6380.596;   6476.351;   6959.447;   5849.891; 11;   8.548;  36.012; 208.773;; 216.011; 312.469;  12.519; -20.418; -20.656;   9.732;   8.553;   7.937;   1.085;  -2.982;;;;;;;;;;;;;;;;;;
2005-07-14T09:46:06.134Z;0;5.1120e-01;0;     0.335;  1109.556;   6515.729; 0;   6420.562;   6515.729;   6999.263;   5889.707; 11;   8.546;  36.148; 208.907;; 216.146; 312.607;  12.520; -20.416; -20.654;   9.729;   8.550;   7.935;   1.086;  -2.981;;;;;;;;;;;;;;;;;;
2005-07-14T09:46:54.133Z;0;5.1010e-01;0;     0.307;  1112.216;   6509.339; 0;   6413.616;   6509.339;   6993.788;   5881.572; 11;   8.539;  36.556; 209.309;; 216.553; 313.022;  12.522; -20.410; -20.649;   9.722;   8.544;   7.928;   1.091;  -2.978;;;;;;;;;;;;;;;;;;
2005-07-14T09:47:10.133Z;0;5.1020e-01;0;     0.310;  1112.216;   6509.975; 0;   6414.262;   6509.975;   6994.431;   5882.215; 11;   8.537;  36.692; 209.443;; 216.688; 313.160;  12.523; -20.408; -20.647;   9.719;   8.542;   7.926;   1.093;  -2.977;;;;;;;;;;;;;;;;;;
2005-07-14T09:47:26.133Z;0;5.1380e-01;0;     0.296;  1116.864;   6533.269; 0;   6437.097;   6533.269;   7019.706;   5902.842; 11;   8.535;  36.828; 209.577;; 216.824; 313.298;  12.524; -20.407; -20.645;   9.716;   8.540;   7.924;   1.095;  -2.976;;;;;;;;;;;;;;;;;;
2005-07-14T09:47:42.133Z;0;5.1330e-01;0;     0.435;  1116.864;   6529.813; 0;   6433.589;   6529.813;   7016.212;   5899.348; 11;   8.533;  36.964; 209.711;; 216.960; 313.437;  12.525; -20.405; -20.644;   9.714;   8.538;   7.922;   1.097;  -2.975;;;;;;;;;;;;;;;;;;
2005-07-14T09:47:58.133Z;0;5.1820e-01;0;     0.352;  1110.872;   6559.015; 0;   6464.259;   6559.015;   7043.514;   5932.642; 11;   8.531;  37.100; 209.845;; 217.096; 313.575;  12.526; -20.403; -20.642;   9.711;   8.536;   7.920;   1.098;  -2.974;;;;;;;;;;;;;;;;;;
2005-07-14T09:48:14.133Z;0;5.1750e-01;0;     0.499;  1110.872;   6554.713; 0;   6459.894;   6554.713;   7039.165;   5928.292; 11;   8.529;  37.236; 209.979;; 217.232; 313.714;  12.527; -20.401; -20.640;   9.709;   8.534;   7.918;   1.100;  -2.973;;;;;;;;;;;;;;;;;;
2005-07-14T09:48:30.133Z;0;5.3310e-01;0;     0.415;  1118.516;   6651.238; 0;   6556.515;   6651.238;   7139.582;   6021.065; 11;   8.527;  37.371; 210.113;; 217.368; 313.853;  12.528; -20.399; -20.638;   9.706;   8.532;   7.916;   1.102;  -2.972;;;;;;;;;;;;;;;;;;
2005-07-14T09:48:46.133Z;0;5.1580e-01;0;     0.337;  1118.516;   6545.775; 0;   6449.503;   6545.775;   7032.963;   5914.447; 11;   8.525;  37.507; 210.247;; 217.504; 313.991;  12.529; -20.397; -20.636;   9.703;   8.530;   7.914;   1.104;  -2.971;;;;;;;;;;;;;;;;;;
2005-07-14T09:49:02.132Z;0;5.0940e-01;0;     0.377;  1112.720;   6505.344; 0;   6409.474;   6505.344;   6989.936;   5877.215; 11;   8.523;  37.643; 210.381;; 217.640; 314.130;  12.530; -20.395; -20.635;   9.701;   8.527;   7.912;   1.105;  -2.970;;;;;;;;;;;;;;;;;;
2005-07-14T09:49:18.132Z;0;5.4690e-01;0;     0.544;  1120.112;   6734.514; 0;   6640.710;   6734.514;   7224.341;   6104.229; 11;   8.521;  37.779; 210.515;; 217.776; 314.269;  12.531; -20.393; -20.633;   9.698;   8.525;   7.909;   1.107;  -2.969;;;;;;;;;;;;;;;;;;
2005-07-14T09:49:34.132Z;0;5.2450e-01;0;     0.465;  1120.112;   6599.403; 0;   6503.650;   6599.403;   7087.776;   5967.664; 11;   8.518;  37.915; 210.649;; 217.912; 314.408;  12.532; -20.392; -20.631;   9.696;   8.523;   7.907;   1.109;  -2.968;;;;;;;;;;;;;;;;;;
2005-07-14T09:49:50.132Z;0;5.2760e-01;0;     0.613;  1114.680;   6617.052; 0;   6522.489;   6617.052;   7103.598;   5988.917; 11;   8.516;  38.051; 210.783;; 218.048; 314.547;  12.533; -20.390; -20.629;   9.693;   8.521;   7.905;   1.110;  -2.967;;;;;;;;;;;;;;;;;;
2005-07-14T09:50:06.132Z;0;5.2040e-01;0;     0.564;  1114.680;   6573.448; 0;   6478.249;   6573.448;   7059.520;   5944.839; 11;   8.514;  38.186; 210.917;; 218.184; 314.685;  12.534; -20.388; -20.627;   9.690;   8.519;   7.903;   1.112;  -2.966;;;;;;;;;;;;;;;;;;
2005-07-14T09:50:22.132Z;0;5.2650e-01;0;     0.461;  1122.604;   6612.086; 0;   6516.091;   6612.086;   7101.524;   5978.920; 11;   8.512;  38.322; 211.051;; 218.317; 314.823;  12.535; -20.386; -20.626;   9.688;   8.517;   7.901;   1.114;  -2.965;;;;;;;;;;;;;;;;;;
2005-07-14T09:50:38.132Z;0;5.2850e-01;0;     0.389;  1122.604;   6624.057; 0;   6528.238;   6624.057;   7113.626;   5991.022; 11;   8.510;  38.458; 211.185;; 218.451; 314.961;  12.536; -20.384; -20.624;   9.685;   8.515;   7.899;   1.116;  -2.964;;;;;;;;;;;;;;;;;;
2005-07-14T09:50:54.132Z;0;5.2260e-01;0;     0.331;  1117.480;   6587.077; 0;   6491.596;   6587.077;   7074.338;   5956.858; 11;   8.508;  38.594; 211.319;; 218.584; 315.098;  12.537; -20.382; -20.622;   9.682;   8.513;   7.897;   1.117;  -2.963;;;;;;;;;;;;;;;;;;
2005-07-14T09:51:10.132Z;0;5.2380e-01;0;     0.440;  1117.480;   6594.444; 0;   6499.071;   6594.444;   7081.785;   5964.305; 11;   8.506;  38.730; 211.453;; 218.718; 315.236;  12.538; -20.380; -20.620;   9.680;   8.511;   7.895;   1.119;  -2.962;;;;;;;;;;;;;;;;;;
2005-07-14T09:51:42.131Z;0;5.1640e-01;0;     0.368;  1124.508;   6550.548; 0;   6453.306;   6550.548;   7040.007;   5915.500; 11;   8.502;  39.001; 211.720;; 218.984; 315.511;  12.540; -20.377; -20.617;   9.675;   8.507;   7.890;   1.122;  -2.960;;;;;;;;;;;;;;;;;;
2005-07-14T09:51:58.131Z;0;5.2720e-01;0;     0.663;  1119.776;   6616.001; 0;   6520.550;   6616.001;   7104.431;   5984.655; 11;   8.500;  39.137; 211.854;; 219.117; 315.649;  12.541; -20.375; -20.615;   9.672;   8.505;   7.888;   1.124;  -2.959;;;;;;;;;;;;;;;;;;
2005-07-14T09:52:14.131Z;0;5.2110e-01;0;     0.661;  1119.776;   6578.450; 0;   6482.446;   6578.450;   7066.468;   5946.692; 11;   8.498;  39.273; 211.988;; 219.250; 315.786;  12.542; -20.373; -20.613;   9.669;   8.502;   7.886;   1.126;  -2.958;;;;;;;;;;;;;;;;;;
2005-07-14T09:52:30.131Z;0;5.6710e-01;0;     0.630;  1125.964;   6855.526; 0;   6762.429;   6855.526;   7348.805;   6222.841; 11;   8.495;  39.409; 212.122;; 219.383; 315.924;  12.543; -20.371; -20.611;   9.667;   8.500;   7.884;   1.128;  -2.957;;;;;;;;;;;;;;;;;;
2005-07-14T09:53:18.131Z;0;5.2360e-01;0;     0.528;  1125.068;   6594.561; 0;   6497.881;   6594.561;   7084.719;   5959.651; 11;   8.489;  39.816; 212.524;; 219.782; 316.337;  12.545; -20.365; -20.606;   9.659;   8.494;   7.878;   1.133;  -2.954;;;;;;;;;;;;;;;;;;
2005-07-14T09:53:34.131Z;0;5.3140e-01;0;     0.573;  1125.068;   6642.447; 0;   6546.474;   6642.447;   7133.133;   6008.064; 11;   8.487;  39.951; 212.657;; 219.915; 316.474;  12.546; -20.363; -20.604;   9.656;   8.492;   7.875;   1.134;  -2.953;;;;;;;;;;;;;;;;;;
2005-07-14T09:57:02.129Z;0;4.8880e-01;0;     0.696;  1128.484;   6378.912; 0;   6278.299;   6378.912;   6867.845;   5739.361; 11;   8.460;  41.715; 214.397;; 221.632; 318.263;  12.559; -20.338; -20.580;   9.622;   8.465;   7.848;   1.157;  -2.940;;;;;;;;;;;;;;;;;;
2005-07-14T09:57:18.129Z;0;5.2760e-01;0;     0.205;  1134.560;   6620.839; 0;   6522.904;   6620.839;   7114.805;   5980.245; 11;   8.458;  41.851; 214.531;; 221.764; 318.400;  12.560; -20.337; -20.578;   9.620;   8.463;   7.846;   1.158;  -2.939;;;;;;;;;;;;;;;;;;
2005-07-14T09:57:34.129Z;0;5.6750e-01;0;     0.624;  1134.560;   6859.609; 0;   6765.132;   6859.609;   7356.154;   6221.594; 11;   8.456;  41.987; 214.664;; 221.895; 318.538;  12.561; -20.335; -20.576;   9.617;   8.461;   7.843;   1.160;  -2.938;;;;;;;;;;;;;;;;;;
2005-07-14T09:57:50.129Z;0;6.0160e-01;0;     0.794;  1132.964;   7056.917; 0;   6965.376;   7056.917;   7554.856;   6421.892; 11;   8.454;  42.122; 214.798;; 222.027; 318.675;  12.562; -20.333; -20.574;   9.614;   8.459;   7.841;   1.162;  -2.937;;;;;;;;;;;;;;;;;;
2005-07-14T09:58:22.129Z;0;5.1400e-01;0;     0.233;  1137.276;   6537.555; 0;   6437.875;   6537.555;   7031.577;   5894.301; 11;   8.449;  42.394; 215.065;; 222.290; 318.950;  12.564; -20.329; -20.570;   9.609;   8.454;   7.837;   1.165;  -2.935;;;;;;;;;;;;;;;;;;
2005-07-14T09:58:54.129Z;0;5.7020e-01;0;     0.251;  1135.792;   6875.339; 0;   6780.875;   6875.339;   7372.510;   6236.718; 11;   8.445;  42.665; 215.333;; 222.552; 319.225;  12.566; -20.325; -20.567;   9.604;   8.450;   7.833;   1.169;  -2.933;;;;;;;;;;;;;;;;;;
2005-07-14T09:59:10.129Z;0;5.1980e-01;0;     0.279;  1135.792;   6573.122; 0;   6474.250;   6573.122;   7067.005;   5931.213; 11;   8.443;  42.800; 215.467;; 222.683; 319.362;  12.567; -20.323; -20.565;   9.601;   8.448;   7.831;   1.170;  -2.932;;;;;;;;;;;;;;;;;;
2005-07-14T09:59:26.128Z;0;6.5100e-01;0;     0.528;  1133.328;   7333.339; 0;   7245.235;   7333.339;   7834.025;   6700.697; 11;   8.441;  42.936; 215.600;; 222.814; 319.500;  12.568; -20.321; -20.563;   9.599;   8.446;   7.829;   1.172;  -2.931;;;;;;;;;;;;;;;;;;
2005-07-14T09:59:42.128Z;0;6.1210e-01;0;     0.409;  1133.328;   7116.576; 0;   7025.754;   7116.576;   7615.233;   6481.905; 11;   8.439;  43.072; 215.734;; 222.945; 319.637;  12.569; -20.319; -20.561;   9.596;   8.444;   7.826;   1.174;  -2.930;;;;;;;;;;;;;;;;;;
2005-07-14T09:59:58.128Z;0;5.7700e-01;0;     0.440;  1131.872;   6914.522; 0;   6821.252;   6914.522;   7410.625;   6278.753; 11;   8.437;  43.207; 215.868;; 223.076; 319.775;  12.570; -20.317; -20.559;   9.593;   8.442;   7.824;   1.176;  -2.929;;;;;;;;;;;;;;;;;;
2005-07-14T10:00:14.128Z;0;6.1790e-01;0;     0.204;  1131.872;   7148.974; 0;   7058.803;   7148.974;   7647.389;   6515.517; 11;   8.435;  43.343; 216.001;; 223.209; 319.911;  12.571; -20.315; -20.557;   9.591;   8.440;   7.822;   1.177;  -2.928;;;;;;;;;;;;;;;;;;
2005-07-14T10:00:30.128Z;0;5.3910e-01;0;     0.502;  1140.328;   6691.109; 0;   6593.223;   6691.109;   7187.994;   6047.666; 11;   8.433;  43.478; 216.135;; 223.342; 320.047;  12.571; -20.313; -20.555;   9.588;   8.438;   7.820;   1.179;  -2.927;;;;;;;;;;;;;;;;;;
2005-07-14T10:00:46.128Z;0;5.6250e-01;0;     0.364;  1140.328;   6830.919; 0;   6735.065;   6830.919;   7329.320;   6188.992; 11;   8.431;  43.614; 216.269;; 223.476; 320.183;  12.572; -20.311; -20.553;   9.586;   8.436;   7.818;   1.181;  -2.926;;;;;;;;;;;;;;;;;;
2005-07-14T10:01:02.128Z;0;6.0490e-01;0;     0.366;  1139.040;   7076.243; 0;   6983.968;   7076.243;   7576.670;   6437.630; 11;   8.429;  43.749; 216.402;; 223.609; 320.319;  12.573; -20.309; -20.551;   9.583;   8.433;   7.816;   1.182;  -2.925;;;;;;;;;;;;;;;;;;
2005-07-14T10:01:18.128Z;0;5.7030e-01;0;     0.640;  1141.420;   6876.730; 0;   6781.340;   6876.730;   7376.023;   6234.603; 11;   8.426;  43.885; 216.536;; 223.743; 320.455;  12.574; -20.307; -20.549;   9.580;   8.431;   7.814;   1.184;  -2.924;;;;;;;;;;;;;;;;;;
2005-07-14T10:01:34.128Z;0;5.5750e-01;0;     0.384;  1141.420;   6801.441; 0;   6704.980;   6801.441;   7299.935;   6158.515; 11;   8.424;  44.020; 216.670;; 223.877; 320.590;  12.575; -20.305; -20.548;   9.578;   8.429;   7.811;   1.186;  -2.923;;;;;;;;;;;;;;;;;;
2005-07-14T10:01:50.128Z;0;5.4240e-01;0;     0.307;  1140.216;   6711.375; 0;   6613.809;   6711.375;   7208.442;   6068.227; 11;   8.422;  44.156; 216.803;; 224.011; 320.726;  12.576; -20.303; -20.546;   9.575;   8.427;   7.809;   1.188;  -2.922;;;;;;;;;;;;;;;;;;
2005-07-14T10:02:54.127Z;0;4.6570e-01;0;     0.485;  1148.672;   6234.822; 0;   6128.096;   6234.822;   6729.287;   5580.615; 11;   8.414;  44.698; 217.338;; 224.547; 321.267;  12.580; -20.295; -20.538;   9.565;   8.419;   7.801;   1.194;  -2.918;;;;;;;;;;;;;;;;;;
2005-07-14T10:03:10.127Z;0;4.3920e-01;0;     0.527;  1148.672;   6060.937; 0;   5951.093;   6060.937;   6553.079;   5404.407; 11;   8.412;  44.833; 217.471;; 224.681; 321.403;  12.581; -20.294; -20.536;   9.562;   8.417;   7.799;   1.196;  -2.917;;;;;;;;;;;;;;;;;;
2005-07-14T10:03:26.127Z;0;4.3950e-01;0;     0.551;  1156.932;   6064.873; 0;   5953.502;   6064.873;   6560.006;   5403.074; 11;   8.410;  44.969; 217.605;; 224.815; 321.538;  12.582; -20.292; -20.534;   9.559;   8.415;   7.796;   1.198;  -2.916;;;;;;;;;;;;;;;;;;
2005-07-14T10:03:58.127Z;0;5.9140e-01;0;     0.338;  1155.560;   7001.707; 0;   6905.692;   7001.707;   7507.601;   6352.041; 11;   8.405;  45.240; 217.872;; 225.084; 321.808;  12.584; -20.288; -20.530;   9.554;   8.410;   7.792;   1.201;  -2.914;;;;;;;;;;;;;;;;;;
2005-07-14T10:07:26.125Z;0;5.2140e-01;0;     0.599;  1167.880;   6588.581; 0;   6484.247;   6588.581;   7094.427;   5926.547; 11;   8.378;  47.000; 219.608;; 226.836; 323.555;  12.597; -20.262; -20.505;   9.520;   8.383;   7.764;   1.224;  -2.901;;;;;;;;;;;;;;;;;;
2005-07-14T10:13:50.123Z;0;4.4430e-01;0;     0.753;  1182.972;   6101.303; 0;   5985.522;   6101.303;   6606.163;   5423.190; 11;   8.328;  50.247; 222.810;; 230.074; 326.800;  12.621; -20.213; -20.458;   9.457;   8.333;   7.712;   1.265;  -2.877;;;;;;;;;;;;;;;;;;
2005-07-14T10:15:42.122Z;0;4.9940e-01;0;     0.721;  1189.608;   6456.835; 0;   6346.302;   6456.835;   6968.919;   5779.311; 11;   8.313;  51.193; 223.743;; 231.014; 327.759;  12.628; -20.198; -20.444;   9.438;   8.318;   7.697;   1.277;  -2.870;;;;;;;;;;;;;;;;;;
2005-07-14T10:16:30.122Z;0;5.1450e-01;0;     0.619;  1188.656;   6550.031; 0;   6441.273;   6550.031;   7062.962;   5874.306; 11;   8.307;  51.599; 224.142;; 231.417; 328.171;  12.631; -20.192; -20.438;   9.430;   8.312;   7.690;   1.282;  -2.867;;;;;;;;;;;;;;;;;;
2005-07-14T10:17:34.121Z;0;5.4910e-01;0;     0.772;  1190.000;   6759.816; 0;   6654.248;   6759.816;   7275.796;   6085.796; 11;   8.298;  52.139; 224.675;; 231.954; 328.721;  12.635; -20.183; -20.429;   9.420;   8.303;   7.682;   1.288;  -2.863;;;;;;;;;;;;;;;;;;
2005-07-14T10:17:50.121Z;0;5.0580e-01;0;     0.389;  1188.572;   6496.402; 0;   6386.747;   6496.402;   7008.622;   5820.050; 11;   8.296;  52.274; 224.809;; 232.089; 328.859;  12.636; -20.181; -20.427;   9.417;   8.301;   7.679;   1.290;  -2.862;;;;;;;;;;;;;;;;;;
2005-07-14T10:19:10.121Z;0;5.2490e-01;0;     0.275;  1190.504;   6614.182; 0;   6506.159;   6614.182;   7128.584;   5938.080; 11;   8.286;  52.950; 225.474;; 232.760; 329.548;  12.641; -20.171; -20.417;   9.404;   8.291;   7.669;   1.299;  -2.857;;;;;;;;;;;;;;;;;;
2005-07-14T10:19:26.121Z;0;5.2040e-01;0;     0.405;  1194.088;   6587.172; 0;   6478.039;   6587.172;   7102.538;   5908.450; 11;   8.284;  53.085; 225.608;; 232.894; 329.686;  12.642; -20.169; -20.415;   9.401;   8.289;   7.666;   1.300;  -2.856;;;;;;;;;;;;;;;;;;
2005-07-14T10:20:46.120Z;0;5.0410e-01;0;     0.485;  1198.260;   6487.178; 0;   6375.551;   6487.178;   7002.771;   5804.510; 11;   8.273;  53.760; 226.273;; 233.561; 330.373;  12.647; -20.158; -20.405;   9.388;   8.278;   7.655;   1.309;  -2.851;;;;;;;;;;;;;;;;;;
2005-07-14T10:23:10.119Z;0;5.5870e-01;0;     0.478;  1197.308;   6818.145; 0;   6712.194;   6818.145;   7337.492;   6140.184; 11;   8.254;  54.975; 227.471;; 234.752; 331.605;  12.656; -20.139; -20.386;   9.364;   8.259;   7.636;   1.324;  -2.842;;;;;;;;;;;;;;;;;;
2005-07-14T10:23:42.119Z;0;5.6850e-01;0;     0.246;  1199.352;   6876.481; 0;   6771.082;   6876.481;   7397.261;   6197.909; 11;   8.250;  55.245; 227.737;; 235.016; 331.879;  12.658; -20.134; -20.382;   9.359;   8.255;   7.631;   1.328;  -2.840;;;;;;;;;;;;;;;;;;
2005-07-14T10:23:58.119Z;0;5.6210e-01;0;     0.238;  1197.924;   6838.182; 0;   6732.438;   6838.182;   7357.991;   6160.066; 11;   8.248;  55.380; 227.870;; 235.148; 332.015;  12.659; -20.132; -20.380;   9.356;   8.253;   7.629;   1.329;  -2.839;;;;;;;;;;;;;;;;;;
2005-07-14T10:24:14.119Z;0;5.6590e-01;0;     0.229;  1197.924;   6860.784; 0;   6755.393;   6860.784;   7380.856;   6182.933; 11;   8.246;  55.515; 228.003;; 235.280; 332.152;  12.660; -20.130; -20.378;   9.354;   8.251;   7.627;   1.331;  -2.838;;;;;;;;;;;;;;;;;;
2005-07-14T10:24:46.119Z;0;5.7210e-01;0;     0.191;  1207.304;   6898.470; 0;   6792.003;   6898.470;   7422.428;   6215.124; 11;   8.242;  55.784; 228.269;; 235.543; 332.426;  12.662; -20.126; -20.374;   9.348;   8.247;   7.623;   1.335;  -2.836;;;;;;;;;;;;;;;;;;
2005-07-14T10:25:02.119Z;0;5.7210e-01;0;     0.296;  1206.212;   6898.278; 0;   6792.002;   6898.278;   7421.832;   6215.620; 11;   8.240;  55.919; 228.402;; 235.674; 332.562;  12.663; -20.124; -20.372;   9.346;   8.245;   7.620;   1.336;  -2.835;;;;;;;;;;;;;;;;;;
2005-07-14T10:25:34.118Z;0;5.6620e-01;0;     0.301;  1215.312;   6865.518; 0;   6757.097;   6865.518;   7392.021;   6176.708; 11;   8.235;  56.189; 228.669;; 235.937; 332.836;  12.665; -20.119; -20.367;   9.341;   8.240;   7.616;   1.340;  -2.833;;;;;;;;;;;;;;;;;;
2005-07-14T10:25:50.118Z;0;5.6980e-01;0;     0.399;  1213.716;   6886.221; 0;   6778.417;   6886.221;   7412.386;   6198.670; 11;   8.233;  56.324; 228.801;; 236.068; 332.973;  12.666; -20.117; -20.365;   9.338;   8.238;   7.614;   1.341;  -2.832;;;;;;;;;;;;;;;;;;
2005-07-14T10:26:06.118Z;0;5.7090e-01;0;     0.290;  1213.716;   6892.935; 0;   6785.237;   6892.935;   7419.180;   6205.463; 11;   8.231;  56.459; 228.934;; 236.199; 333.109;  12.667; -20.115; -20.363;   9.335;   8.236;   7.612;   1.343;  -2.831;;;;;;;;;;;;;;;;;;
2005-07-14T10:26:54.118Z;0;5.7330e-01;0;     0.433;  1214.724;   6906.860; 0;   6799.203;   6906.860;   7433.638;   6218.914; 11;   8.225;  56.863; 229.333;; 236.592; 333.520;  12.670; -20.108; -20.357;   9.327;   8.230;   7.605;   1.348;  -2.828;;;;;;;;;;;;;;;;;;
2005-07-14T10:27:10.118Z;0;5.6620e-01;0;     0.358;  1214.724;   6865.608; 0;   6757.293;   6865.608;   7391.896;   6177.172; 11;   8.223;  56.998; 229.466;; 236.723; 333.656;  12.671; -20.106; -20.355;   9.325;   8.228;   7.603;   1.350;  -2.827;;;;;;;;;;;;;;;;;;
2005-07-14T10:27:26.118Z;0;5.7930e-01;0;     0.511;  1220.940;   6943.156; 0;   6834.963;   6943.156;   7472.641;   6251.701; 11;   8.221;  57.133; 229.599;; 236.854; 333.793;  12.672; -20.104; -20.353;   9.322;   8.226;   7.601;   1.352;  -2.826;;;;;;;;;;;;;;;;;;
2005-07-14T10:29:02.117Z;0;5.1190e-01;0;     0.336;  1222.368;   6540.445; 0;   6425.203;   6540.445;   7065.391;   5843.022; 11;   8.208;  57.942; 230.397;; 237.637; 334.613;  12.678; -20.091; -20.340;   9.306;   8.213;   7.587;   1.362;  -2.819;;;;;;;;;;;;;;;;;;
2005-07-14T10:29:18.117Z;0;5.1440e-01;0;     0.449;  1228.528;   6556.565; 0;   6440.439;   6556.565;   7083.930;   5855.402; 11;   8.206;  58.077; 230.530;; 237.767; 334.750;  12.679; -20.089; -20.338;   9.303;   8.211;   7.585;   1.364;  -2.818;;;;;;;;;;;;;;;;;;
2005-07-14T10:30:38.116Z;0;5.3400e-01;0;     0.577;  1232.588;   6677.071; 0;   6562.317;   6677.071;   7207.487;   5974.898; 11;   8.195;  58.751; 231.194;; 238.423; 335.429;  12.684; -20.077; -20.327;   9.290;   8.200;   7.574;   1.372;  -2.813;;;;;;;;;;;;;;;;;;
2005-07-14T10:42:38.112Z;0;6.2020e-01;0;     0.307;  1269.604;   7184.803; 0;   7071.740;   7184.803;   7734.977;   6465.373; 11;   8.100;  64.806; 237.165;; 244.430; 341.463;  12.731; -19.975; -20.228;   9.171;   8.105;   7.474;   1.449;  -2.767;;;;;;;;;;;;;;;;;;
2005-07-14T10:42:54.112Z;0;6.1830e-01;0;     0.294;  1268.204;   7174.019; 0;   7061.035;   7174.019;   7723.551;   6455.348; 11;   8.098;  64.941; 237.297;; 244.561; 341.598;  12.732; -19.973; -20.225;   9.168;   8.103;   7.472;   1.450;  -2.766;;;;;;;;;;;;;;;;;;
2005-07-14T10:43:10.112Z;0;6.1950e-01;0;     0.250;  1268.204;   7180.837; 0;   7067.961;   7180.837;   7730.451;   6462.247; 11;   8.096;  65.075; 237.430;; 244.692; 341.734;  12.733; -19.970; -20.223;   9.165;   8.101;   7.470;   1.452;  -2.765;;;;;;;;;;;;;;;;;;
2005-07-14T10:43:26.112Z;0;6.2180e-01;0;     0.330;  1271.788;   7194.556; 0;   7081.256;   7194.556;   7745.645;   6473.856; 11;   8.094;  65.210; 237.562;; 244.824; 341.870;  12.734; -19.968; -20.221;   9.163;   8.099;   7.467;   1.454;  -2.764;;;;;;;;;;;;;;;;;;
2005-07-14T10:43:42.111Z;0;6.2970e-01;0;     0.382;  1271.788;   7238.633; 0;   7126.034;   7238.633;   7790.244;   6518.456; 11;   8.092;  65.344; 237.695;; 244.955; 342.006;  12.735; -19.966; -20.218;   9.160;   8.097;   7.465;   1.455;  -2.763;;;;;;;;;;;;;;;;;;
2005-07-14T10:43:58.111Z;0;6.1960e-01;0;     0.423;  1270.444;   7181.615; 0;   7068.350;   7181.615;   7732.058;   6461.614; 11;   8.090;  65.478; 237.827;; 245.086; 342.142;  12.736; -19.963; -20.216;   9.157;   8.095;   7.463;   1.457;  -2.762;;;;;;;;;;;;;;;;;;
2005-07-14T10:44:14.111Z;0;5.9650e-01;0;     0.457;  1270.444;   7051.029; 0;   6935.631;   7051.029;   7599.882;   6329.438; 11;   8.088;  65.613; 237.960;; 245.217; 342.278;  12.737; -19.961; -20.214;   9.155;   8.093;   7.461;   1.459;  -2.761;;;;;;;;;;;;;;;;;;